Orbital Elements at Epoch 2459200.5 (2020-Dec-17.0) TDB
Reference: JPL 18 (heliocentric ecliptic J2000)
Element | Value | Uncertainty (1-sigma) | Units |
e | .129746546385112 | 3.5728e-08 | |
a | 2.336165861640596 | 1.2471e-08 | au |
q | 2.033056409309929 | 8.2328e-08 | au |
i | 2.293856669469795 | 4.92e-06 | deg |
node | 174.7594107167306 | 9.0728e-05 | deg |
peri | 69.79431892961649 | 9.2717e-05 | deg |
M | 136.3256319827522 | 1.8169e-05 | deg |
tp | 2458706.611452425829 (2019-Aug-11.11145243) | 6.5859e-05 | TDB |
period | 1304.229252714533 3.57 | 1.0443e-05 2.859e-08 | d yr |
n | .2760250924066614 | 2.2102e-09 | deg/d |
Q | 2.639275313971263 | 1.4089e-08 | au |
|
| | Orbit Determination Parameters
Additional Information
|